Showing default

LEONAV-1, 69937

Orbit data source: Space-Track

LEONAV-1, 69937 is a French payload satellite in SSO that was launched on Tue, 07 Jul 2026 UTC via an FALCON 9 launch vehicle from the Air Force Western Test Range (AFWTR). Payload-class satellites include a variety of spacecraft equipped with specific instruments for various scientific and technological missions. These include communications satellites like Starlink; space stations such as the ISS; scientific satellites like the Hubble; Earth observation satellites from companies like Planet Labs, Umbra, and HawkEye 360; GPS; miniature CubeSats for education and research; and military/defense satellites.

Loading next visibility...
Identifier
69937, 2026-156BW
Orbit
SSO
Country
Flag of FRFR
Related business
Manufacturer
U-Space
Mission
Operational spacecraft
Bus & Motor
CUBESAT 12U, Unknown motor
Mass
~15 kg wet, ~15 kg dry
Launch date (UTC)
2026-07-07 (2 months ago)
Launch vehicle
FALCON 9
Launch site
Air Force Western Test Range (AFWTR)
Object type
Payload
Rocket body
Debris
Shape & HBR
BOX+ 2 PAN, 1.0 m
Radar Cross Section
Medium (>0.1 m² and <1 m²)

Expand to show TLE details & history
Last TLE update: 1 day ago

TLE from 1 day ago
0 LEONAV-1
1 69937U 26156BW  26236.47041404  .00002775  00000-0  27311-3 0  9995
2 69937  97.7462 136.1881 0010926   3.3648 356.7643 14.92855245  7186
Epoch: 2026-08-24T11:17Z
TLE epoch observation values (Epoch: 2026-08-24T11:17:23.773Z)
Latitude
0.00001°
Longitude
-5.91261°
Altitude
584.48 km
Speed
7.572 km/s
True Right ascension
09h 04m 45s
True Declination
0° 00' 00"
Sunlit
Object was in daylight at epoch
Visualization orbit readout
Latitude
Unknown
Longitude
Unknown
Altitude
Unknown
Speed
Unknown
Apparent Right ascension
Unknown
Apparent Declination
Unknown
Sunlit
N/A
Visualization observer readout
Local Sidereal Time
02:01:59
Azimuth
Unknown
Elevation
Unknown
Doppler factor
Unknown
Orbital elements
Apogee altitude
593.664 km
Perigee altitude
578.446 km
Semi-major axis
6,964.192 km
Eccentricity
0.00109
Inclination
97.7462°
RAAN
136.1881°
Arg. of periapsis
3.3648°
True anomaly
356.75722°
Mean anomaly
356.7643°
Eccentric anomaly
356.76076°
Mean motion
3.73454 °/min
Orbital period
96.4 mins
BSTAR
0.00027311
Loading maneuver chart data...
Computing Atmospheric mass density...
Loading historical data...
Loading historical data...
Loading historical data...
Loading historical data...
Loading historical data...
Loading historical data...
Loading historical data...

Documentation

Showing up to 5 results
|